| time (UTC) | temp F | wind direction | speed MPH | gust MPH | rain 1hr in | rain 24hr in | rain mn in | humidity % | barometer mb |
| 20260508181559 | 63 | 11 | 15.0 | 23.0 | 0.00 | 0.00 | 0.00 | 36 | 1007.1 |
| 20260508174601 | 60 | 28 | 11.0 | 18.0 | 0.00 | 0.00 | 0.00 | 43 | 1007.1 |
| 20260508173101 | 60 | 18 | 13.0 | 22.0 | 0.00 | 0.00 | 0.00 | 41 | 1007.4 |
| 20260508171601 | 62 | 4 | 17.0 | 24.0 | 0.00 | 0.00 | 0.00 | 39 | 1007.2 |
| 20260508170059 | 62 | 22 | 18.0 | 24.0 | 0.00 | 0.00 | 0.00 | 36 | 1007.2 |
| 20260508164559 | 63 | 11 | 16.0 | 24.0 | 0.00 | 0.00 | 0.00 | 36 | 1007.1 |
| 20260508163100 | 63 | 18 | 16.0 | 23.0 | 0.00 | 0.00 | 0.00 | 36 | 1007.1 |
| 20260508161601 | 62 | 349 | 14.0 | 23.0 | 0.00 | 0.00 | 0.00 | 39 | 1007.0 |
| 20260508160058 | 61 | 4 | 12.0 | 19.0 | 0.00 | 0.00 | 0.00 | 40 | 1006.9 |
| 20260508154612 | 60 | 4 | 12.0 | 18.0 | 0.00 | 0.00 | 0.00 | 40 | 1007.0 |
| 20260508153059 | 59 | 16 | 11.0 | 17.0 | 0.00 | 0.00 | 0.00 | 41 | 1007.0 |
| 20260508151600 | 59 | 354 | 9.0 | 14.0 | 0.00 | 0.00 | 0.00 | 44 | 1007.0 |
| 20260508150110 | 58 | 354 | 8.0 | 11.0 | 0.00 | 0.00 | 0.00 | 48 | 1007.0 |
| 20260508144602 | 57 | 345 | 10.0 | 14.0 | 0.00 | 0.00 | 0.00 | 48 | 1007.1 |
| 20260508143134 | 55 | 359 | 8.0 | 13.0 | 0.00 | 0.00 | 0.00 | 49 | 1007.3 |
| 20260508141606 | 54 | 326 | 8.0 | 13.0 | 0.00 | 0.00 | 0.00 | 52 | 1007.3 |
| 20260508140121 | 52 | 306 | 7.0 | 9.0 | 0.00 | 0.00 | 0.00 | 56 | 1007.2 |
| 20260508134600 | 50 | 261 | 3.0 | 7.0 | 0.00 | 0.00 | 0.00 | 64 | 1007.1 |
| 20260508133109 | 47 | 272 | 3.0 | 9.0 | 0.00 | 0.00 | 0.00 | 70 | 1007.1 |
| 20260508131602 | 43 | 265 | 3.0 | 6.0 | 0.00 | 0.00 | 0.00 | 74 | 1007.1 |
| 20260508124601 | 38 | 256 | 2.0 | 4.0 | 0.00 | 0.00 | 0.00 | 80 | 1006.9 |
| 20260508123111 | 36 | 256 | 4.0 | 9.0 | 0.00 | 0.00 | 0.00 | 80 | 1007.0 |
| 20260508121610 | 35 | 246 | 4.0 | 8.0 | 0.00 | 0.00 | 0.00 | 79 | 1006.9 |
| 20260508120106 | 35 | 251 | 5.0 | 8.0 | 0.00 | 0.00 | 0.00 | 78 | 1007.0 |
| 20260508114609 | 35 | 243 | 5.0 | 8.0 | 0.00 | 0.00 | 0.00 | 77 | 1006.9 |
| 20260508113101 | 35 | 241 | 5.0 | 10.0 | 0.00 | 0.00 | 0.00 | 77 | 1007.0 |
| 20260508111607 | 35 | 226 | 6.0 | 10.0 | 0.00 | 0.00 | 0.00 | 76 | 1007.1 |
| 20260508110111 | 35 | 235 | 5.0 | 9.0 | 0.00 | 0.00 | 0.00 | 76 | 1007.1 |
| 20260508104613 | 35 | 219 | 4.0 | 8.0 | 0.00 | 0.00 | 0.00 | 75 | 1006.9 |
| 20260508103104 | 35 | 222 | 4.0 | 7.0 | 0.00 | 0.00 | 0.00 | 75 | 1006.9 |
| 20260508101601 | 35 | 236 | 5.0 | 8.0 | 0.00 | 0.00 | 0.00 | 74 | 1007.1 |
| 20260508100059 | 36 | 228 | 5.0 | 6.0 | 0.00 | 0.00 | 0.00 | 74 | 1007.2 |
| 20260508094559 | 36 | 237 | 5.0 | 7.0 | 0.00 | 0.00 | 0.00 | 73 | 1007.2 |
| 20260508093058 | 36 | 226 | 5.0 | 7.0 | 0.00 | 0.00 | 0.00 | 73 | 1007.2 |
| 20260508091609 | 36 | 228 | 5.0 | 6.0 | 0.00 | 0.00 | 0.00 | 73 | 1007.1 |
| 20260508090104 | 36 | 241 | 4.0 | 8.0 | 0.00 | 0.00 | 0.00 | 73 | 1007.3 |
| 20260508084615 | 36 | 208 | 5.0 | 7.0 | 0.00 | 0.00 | 0.00 | 72 | 1007.3 |
| 20260508083108 | 37 | 195 | 4.0 | 7.0 | 0.00 | 0.00 | 0.00 | 72 | 1007.3 |
| 20260508081603 | 37 | 224 | 5.0 | 7.0 | 0.00 | 0.00 | 0.00 | 73 | 1007.4 |
| 20260508080111 | 37 | 230 | 6.0 | 9.0 | 0.00 | 0.00 | 0.00 | 73 | 1007.4 |
| 20260508074621 | 37 | 233 | 6.0 | 10.0 | 0.00 | 0.00 | 0.00 | 74 | 1007.4 |
| 20260508073101 | 36 | 226 | 5.0 | 7.0 | 0.00 | 0.00 | 0.00 | 72 | 1007.4 |
| 20260508071558 | 36 | 193 | 5.0 | 7.0 | 0.00 | 0.00 | 0.00 | 72 | 1007.5 |
| 20260508064600 | 38 | 183 | 4.0 | 6.0 | 0.00 | 0.00 | 0.00 | 68 | 1007.5 |
| 20260508063101 | 39 | 210 | 5.0 | 8.0 | 0.00 | 0.00 | 0.00 | 67 | 1007.4 |
| 20260508061558 | 38 | 220 | 4.0 | 6.0 | 0.00 | 0.00 | 0.00 | 66 | 1007.3 |
| 20260508060100 | 38 | 222 | 4.0 | 6.0 | 0.00 | 0.00 | 0.00 | 64 | 1007.4 |
| 20260508054602 | 39 | 191 | 4.0 | 5.0 | 0.00 | 0.00 | 0.00 | 62 | 1007.4 |
| 20260508053106 | 39 | 191 | 4.0 | 7.0 | 0.00 | 0.00 | 0.00 | 63 | 1007.3 |
| 20260508051617 | 40 | 187 | 5.0 | 7.0 | 0.00 | 0.00 | 0.00 | 62 | 1007.3 |
| 20260508050116 | 40 | 174 | 6.0 | 7.0 | 0.00 | 0.00 | 0.00 | 63 | 1007.5 |
| 20260508044559 | 41 | 205 | 3.0 | 5.0 | 0.00 | 0.00 | 0.00 | 59 | 1007.5 |
| 20260508043108 | 42 | 190 | 4.0 | 7.0 | 0.00 | 0.00 | 0.00 | 57 | 1007.4 |
| 20260508041604 | 43 | 173 | 5.0 | 6.0 | 0.00 | 0.00 | 0.00 | 56 | 1007.4 |
| 20260508040114 | 43 | 173 | 5.0 | 7.0 | 0.00 | 0.00 | 0.00 | 55 | 1007.5 |
| 20260508034601 | 45 | 173 | 4.0 | 6.0 | 0.00 | 0.00 | 0.00 | 52 | 1007.4 |
| 20260508033100 | 47 | 179 | 5.0 | 6.0 | 0.00 | 0.00 | 0.00 | 50 | 1007.4 |
| 20260508031559 | 49 | 0 | 0.0 | 0.0 | 0.00 | 0.00 | 0.00 | 46 | 1007.4 |
| 20260508030100 | 52 | 0 | 0.0 | 0.0 | 0.00 | 0.00 | 0.00 | 42 | 1007.2 |
| 20260508024558 | 55 | 0 | 0.0 | 2.0 | 0.00 | 0.00 | 0.00 | 39 | 1007.1 |
| 20260508023100 | 59 | 44 | 3.0 | 6.0 | 0.00 | 0.00 | 0.00 | 37 | 1007.1 |
| 20260508021601 | 61 | 30 | 7.0 | 11.0 | 0.00 | 0.00 | 0.00 | 34 | 1006.9 |
| 20260508020103 | 62 | 27 | 8.0 | 12.0 | 0.00 | 0.00 | 0.00 | 33 | 1006.8 |
| 20260508014601 | 63 | 48 | 11.0 | 17.0 | 0.00 | 0.00 | 0.00 | 33 | 1006.7 |
| 20260508013102 | 64 | 31 | 14.0 | 20.0 | 0.00 | 0.00 | 0.00 | 33 | 1006.6 |
| 20260508011557 | 65 | 28 | 16.0 | 23.0 | 0.00 | 0.00 | 0.00 | 33 | 1006.5 |
| 20260508010100 | 65 | 23 | 14.0 | 23.0 | 0.00 | 0.00 | 0.00 | 32 | 1006.2 |
| 20260508004602 | 66 | 33 | 14.0 | 25.0 | 0.00 | 0.00 | 0.00 | 32 | 1006.0 |
| 20260508003058 | 67 | 12 | 15.0 | 28.0 | 0.00 | 0.00 | 0.00 | 31 | 1005.9 |
| 20260508001600 | 67 | 13 | 17.0 | 28.0 | 0.00 | 0.00 | 0.00 | 32 | 1005.7 |
| 20260507234603 | 66 | 25 | 13.0 | 21.0 | 0.00 | 0.00 | 0.00 | 34 | 1005.3 |
| 20260507233117 | 67 | 16 | 14.0 | 22.0 | 0.00 | 0.00 | 0.00 | 35 | 1005.2 |
| 20260507231605 | 66 | 31 | 11.0 | 19.0 | 0.00 | 0.00 | 0.00 | 36 | 1005.0 |
| 20260507230058 | 70 | 4 | 16.0 | 22.0 | 0.00 | 0.00 | 0.00 | 32 | 1004.8 |
| 20260507224559 | 69 | 29 | 15.0 | 24.0 | 0.00 | 0.00 | 0.00 | 33 | 1004.5 |
| 20260507223113 | 68 | 12 | 14.0 | 21.0 | 0.00 | 0.00 | 0.00 | 32 | 1004.5 |
| 20260507221558 | 69 | 359 | 12.0 | 19.0 | 0.00 | 0.00 | 0.00 | 33 | 1004.3 |
| 20260507220058 | 69 | 340 | 9.0 | 15.0 | 0.00 | 0.00 | 0.00 | 34 | 1004.3 |
| 20260507214604 | 70 | 51 | 13.0 | 20.0 | 0.00 | 0.00 | 0.00 | 35 | 1004.3 |
| 20260507213058 | 70 | 9 | 15.0 | 23.0 | 0.00 | 0.00 | 0.00 | 33 | 1004.3 |
| 20260507211603 | 70 | 48 | 10.0 | 16.0 | 0.00 | 0.00 | 0.00 | 36 | 1004.2 |
| 20260507210114 | 68 | 11 | 14.0 | 21.0 | 0.00 | 0.00 | 0.00 | 37 | 1004.2 |
| 20260507204559 | 69 | 359 | 9.0 | 23.0 | 0.00 | 0.00 | 0.00 | 35 | 1004.0 |
| 20260507203059 | 68 | 4 | 16.0 | 24.0 | 0.00 | 0.00 | 0.00 | 34 | 1004.2 |
| 20260507201600 | 67 | 319 | 14.0 | 23.0 | 0.00 | 0.00 | 0.00 | 37 | 1004.0 |
| 20260507200105 | 67 | 359 | 13.0 | 22.0 | 0.00 | 0.00 | 0.00 | 36 | 1004.1 |
| 20260507194602 | 67 | 9 | 10.0 | 22.0 | 0.00 | 0.00 | 0.00 | 37 | 1004.0 |
| 20260507193059 | 66 | 326 | 11.0 | 16.0 | 0.00 | 0.00 | 0.00 | 36 | 1004.0 |
| 20260507191605 | 66 | 351 | 13.0 | 19.0 | 0.00 | 0.00 | 0.00 | 38 | 1004.3 |
| 20260507190113 | 66 | 265 | 7.0 | 15.0 | 0.00 | 0.00 | 0.00 | 37 | 1004.3 |
| 20260507184557 | 64 | 275 | 7.0 | 14.0 | 0.00 | 0.00 | 0.00 | 38 | 1004.5 |
| 20260507183116 | 64 | 258 | 8.0 | 17.0 | 0.00 | 0.00 | 0.00 | 37 | 1004.5 |